Raleigh-Durham Airport, NC

12:42 AM EST on December 15, 2019 (GMT -0500)
Raleigh-Durham International

Weather History for KRDU - July, 2019

Change the Weather History Date:

Sunday, July 21, 2019

  Actual Average Record
Temperature  
Mean Temperature 86 °F 80 °F  
Max Temperature 99 °F 90 °F 102 °F (1952)
Min Temperature 73 °F 70 °F 59 °F (2001)
Degree Days  
Heating Degree Days 0 0  
Month to date heating degree days 0 0  
Since 1 June heating degree days 0 4  
Since 1 July heating degree days 0 0  
Cooling Degree Days 21 15  
Month to date cooling degree days 389 315  
Year to date cooling degree days 1069 871  
Since 1 June cooling degree days 724 662  
Growing Degree Days 36 (Base 50)    
Moisture  
Dew Point 70 °F    
Average Humidity 64    
Maximum Humidity 93    
Minimum Humidity 35    
Precipitation  
Precipitation 0.00 in 0.16 in 2.72 in (1905)
Month to date precipitation 2.17 3.14  
Year to date precipitation 26.20 23.69  
Sea Level Pressure  
Sea Level Pressure 29.96 in    
Wind  
Wind Speed 10 mph (WSW)    
Max Wind Speed 23 mph    
Max Gust Speed 30 mph    
Visibility 10 miles    
Events      
T = Trace of Precipitation, MM = Missing Value Source: NWS Daily Summary

Daily Weather History Graph

Daily Weather History Graph

Search for Another Location

Airport or City:

Astronomy

Jul. 21, 2019 Rise Set
Actual Time 6:14 AM EDT 8:28 PM EDT
Civil Twilight 5:45 AM EDT 8:57 PM EDT
Nautical Twilight 5:09 AM EDT 9:32 PM EDT
Astronomical Twilight 4:30 AM EDT 10:11 PM EDT
Moon 11:30 PM EDT (7/21) 10:26 AM EDT (7/21)
Length of Visible Light 15h 12m
Length of Day
14h 14m
Waning Gibbous, 80% of the Moon is Illuminated
Jul 21
Waning Gibbous
Jul 24
Last Quarter
Jul 31
New
Aug 7
First Quarter
Aug 15
Full

Hourly Weather History & Observations

Time (EDT) Temp. Heat Index Dew Point Humidity Pressure Visibility Wind Dir Wind Speed Gust Speed Precip Events Conditions
12:51 AM 73.9 °F - 72.0 °F 93% 29.99 in 10.0 mi WSW 5.8 mph - N/A   Mostly Cloudy
1:51 AM 73.9 °F - 72.0 °F 93% 29.98 in 10.0 mi WSW 3.5 mph - N/A   Mostly Cloudy
2:51 AM 73.9 °F - 72.0 °F 93% 29.98 in 10.0 mi WSW 4.6 mph - N/A   Partly Cloudy
3:51 AM 73.9 °F - 72.0 °F 93% 29.97 in 10.0 mi SW 4.6 mph - N/A   Partly Cloudy
4:51 AM 73.0 °F - 72.0 °F 96% 29.97 in 8.0 mi WSW 5.8 mph - N/A   Partly Cloudy
5:51 AM 73.0 °F - 72.0 °F 96% 29.97 in 8.0 mi SW 5.8 mph - N/A   Partly Cloudy
6:51 AM 73.9 °F - 72.0 °F 93% 29.97 in 9.0 mi WSW 6.9 mph - N/A   Partly Cloudy
7:51 AM 78.1 °F - 73.0 °F 84% 29.99 in 10.0 mi WSW 9.2 mph - N/A   Partly Cloudy
8:51 AM 82.0 °F 87.4 °F 73.0 °F 74% 29.99 in 10.0 mi WSW 12.7 mph - N/A   Partly Cloudy
9:51 AM 84.9 °F 91.4 °F 73.0 °F 67% 30.00 in 10.0 mi WSW 10.4 mph - N/A   Partly Cloudy
10:51 AM 90.0 °F 97.9 °F 73.0 °F 57% 29.99 in 10.0 mi WSW 17.3 mph 23.0 mph N/A   Partly Cloudy
11:51 AM 93.0 °F 100.1 °F 71.1 °F 49% 29.99 in 10.0 mi SW 20.7 mph 27.6 mph N/A   Scattered Clouds
12:51 PM 95.0 °F 100.7 °F 69.1 °F 43% 29.98 in 10.0 mi WSW 11.5 mph - N/A   Scattered Clouds
1:51 PM 96.1 °F 102.9 °F 70.0 °F 43% 29.97 in 10.0 mi SW 17.3 mph 27.6 mph N/A   Partly Cloudy
2:51 PM 97.0 °F 102.8 °F 69.1 °F 40% 29.95 in 10.0 mi WNW 9.2 mph 21.9 mph N/A   Partly Cloudy
3:51 PM 97.0 °F 100.4 °F 66.0 °F 36% 29.93 in 10.0 mi West 13.8 mph - N/A   Scattered Clouds
4:51 PM 98.1 °F 104.4 °F 69.1 °F 39% 29.93 in 10.0 mi WSW 17.3 mph - N/A   Scattered Clouds
5:51 PM 98.1 °F 102.4 °F 66.9 °F 36% 29.92 in 10.0 mi SW 12.7 mph - N/A   Scattered Clouds
6:51 PM 95.0 °F 97.4 °F 64.9 °F 37% 29.92 in 10.0 mi West 10.4 mph - N/A   Scattered Clouds
7:51 PM 91.0 °F 93.8 °F 66.0 °F 44% 29.92 in 10.0 mi WSW 6.9 mph - N/A   Scattered Clouds
8:51 PM 86.0 °F 89.4 °F 68.0 °F 55% 29.93 in 10.0 mi SW 4.6 mph - N/A   Scattered Clouds
9:51 PM 84.9 °F 88.8 °F 69.1 °F 59% 29.95 in 10.0 mi South 3.5 mph - N/A   Scattered Clouds
10:51 PM 82.0 °F 84.9 °F 68.0 °F 62% 29.96 in 10.0 mi WSW 6.9 mph - N/A   Scattered Clouds
11:51 PM 81.0 °F 83.8 °F 68.0 °F 65% 29.95 in 10.0 mi SW 9.2 mph - N/A   Partly Cloudy